,,Stat5,,Stat1,,Stat2,,Stat3,,Stat4,,Wind1,,Wind1,
time,status,PA1M_AVG,status,PR1M_SUM,status,RH1M_AVG,status,SR1M_AVG,status,TA1M_AVG,status,W1dAve1m,status,W1sAve1m,
2003-03-20, 00:00:01,VALID,917.943,VALID,0,VALID,98.5824,VALID,0,VALID,20.9114,VALID,38,VALID,0.882212,
2003-03-20, 00:01:00,VALID,917.943,VALID,0,VALID,98.5112,VALID,0.0339617,VALID,20.9117,VALID,49,VALID,0.786529,
2003-03-20, 00:02:00,VALID,917.934,VALID,0,VALID,98.4553,VALID,0,VALID,20.899,VALID,44,VALID,0.713049,
2003-03-20, 00:03:00,VALID,917.905,VALID,0,VALID,98.4425,VALID,0.0169808,VALID,20.902,VALID,46,VALID,0.540441,
2003-03-20, 00:04:00,VALID,917.887,VALID,0,VALID,98.3268,VALID,0.0339617,VALID,20.8918,VALID,67,VALID,0.771382,
2003-03-20, 00:05:00,VALID,917.879,VALID,0,VALID,98.2073,VALID,0,VALID,20.8794,VALID,58,VALID,0.727273,
2003-03-20, 00:06:00,VALID,917.833,VALID,0,VALID,98.206,VALID,0,VALID,20.8567,VALID,52,VALID,0.503005,
2003-03-20, 00:07:00,VALID,917.801,VALID,0,VALID,98.145,VALID,0.0169808,VALID,20.8581,VALID,58,VALID,0.87066,
2003-03-20, 00:08:00,VALID,917.765,VALID,0,VALID,98.131,VALID,0,VALID,20.8473,VALID,58,VALID,0.47895,
2003-03-20, 00:09:00,VALID,917.72,VALID,0,VALID,98.1157,VALID,0,VALID,20.8311,VALID,57,VALID,0.55599,
2003-03-20, 00:10:00,VALID,917.683,VALID,0,VALID,98.0801,VALID,0,VALID,20.8443,VALID,58,VALID,0.476786,
2003-03-20, 00:11:00,VALID,917.649,VALID,0,VALID,98.0305,VALID,0,VALID,20.8279,VALID,58,VALID,0.495192,
2003-03-20, 00:12:00,VALID,917.622,VALID,0,VALID,97.9479,VALID,0.0339617,VALID,20.8255,VALID,71,VALID,0.415956,
2003-03-20, 00:13:00,VALID,917.613,VALID,0,VALID,97.9339,VALID,0.0169808,VALID,20.8061,VALID,71,VALID,0.431538,
2003-03-20, 00:14:00,VALID,917.599,VALID,0,VALID,97.9364,VALID,0,VALID,20.7896,VALID,72,VALID,0.519965,
2003-03-20, 00:15:00,VALID,917.607,VALID,0,VALID,97.8805,VALID,0.0169808,VALID,20.7732,VALID,56,VALID,0.502821,
2003-03-20, 00:16:00,VALID,917.587,VALID,0,VALID,97.9059,VALID,0,VALID,20.7638,VALID,52,VALID,0.383681,
2003-03-20, 00:17:00,VALID,917.564,VALID,0,VALID,97.939,VALID,0,VALID,20.7506,VALID,51,VALID,0.321429,
2003-03-20, 00:18:00,VALID,917.531,VALID,0,VALID,97.9822,VALID,0,VALID,20.7441,VALID,51,VALID,0.0600962,
2003-03-20, 00:19:00,VALID,917.488,VALID,0,VALID,98.0153,VALID,0,VALID,20.7476,VALID,51,VALID,0.00094697,
2003-03-20, 00:20:00,VALID,917.441,VALID,0,VALID,98.0191,VALID,-0.0169808,VALID,20.7608,VALID,51,VALID,0.0115132,
2003-03-20, 00:21:00,VALID,917.401,VALID,0,VALID,98.0356,VALID,0.0339617,VALID,20.7568,VALID,51,VALID,0.030599,
2003-03-20, 00:22:00,VALID,917.373,VALID,0,VALID,98.0038,VALID,-0.0169808,VALID,20.7678,VALID,51,VALID,0.324219,
2003-03-20, 00:23:00,VALID,917.352,VALID,0,VALID,97.9352,VALID,0.0169808,VALID,20.7444,VALID,56,VALID,0.470052,
2003-03-20, 00:24:00,VALID,917.335,VALID,0,VALID,97.9517,VALID,0,VALID,20.7414,VALID,75,VALID,0.698438,
2003-03-20, 00:25:00,VALID,917.323,VALID,0,VALID,98.0293,VALID,0,VALID,20.7514,VALID,88,VALID,0.788261,
2003-03-20, 00:26:00,VALID,917.302,VALID,0,VALID,98.075,VALID,0,VALID,20.7481,VALID,92,VALID,0.580729,
2003-03-20, 00:27:00,VALID,917.3,VALID,0,VALID,98.1717,VALID,-0.0509425,VALID,20.7452,VALID,101,VALID,0.532072,
2003-03-20, 00:28:00,VALID,917.275,VALID,0,VALID,98.2493,VALID,0,VALID,20.7452,VALID,101,VALID,0.403863,
2003-03-20, 00:29:00,VALID,917.249,VALID,0,VALID,98.2963,VALID,0,VALID,20.7514,VALID,98,VALID,0.198351,
2003-03-20, 00:30:00,VALID,917.202,VALID,0,VALID,98.3434,VALID,-0.0339617,VALID,20.7549,VALID,98,VALID,0.0368924,
2003-03-20, 00:31:00,VALID,917.165,VALID,0,VALID,98.3764,VALID,0,VALID,20.7613,VALID,98,VALID,0,
2003-03-20, 00:32:00,VALID,917.119,VALID,0,VALID,98.4133,VALID,0,VALID,20.7743,VALID,98,VALID,0,
2003-03-20, 00:33:00,VALID,917.09,VALID,0,VALID,98.4235,VALID,0,VALID,20.7735,VALID,97,VALID,0,
2003-03-20, 00:34:00,VALID,917.066,VALID,0,VALID,98.4158,VALID,0,VALID,20.7765,VALID,97,VALID,0,
2003-03-20, 00:35:00,VALID,917.024,VALID,0,VALID,98.4018,VALID,0,VALID,20.8004,VALID,96,VALID,0.0401476,
2003-03-20, 00:36:00,VALID,916.999,VALID,0,VALID,98.4209,VALID,0,VALID,20.8066,VALID,39,VALID,0.376085,
2003-03-20, 00:37:00,VALID,916.973,VALID,0,VALID,98.398,VALID,0,VALID,20.8096,VALID,39,VALID,0.488281,
2003-03-20, 00:38:00,VALID,916.959,VALID,0,VALID,98.3256,VALID,0.0169808,VALID,20.8195,VALID,38,VALID,0.60625,
2003-03-20, 00:39:00,VALID,916.927,VALID,0,VALID,98.2556,VALID,0.0169808,VALID,20.8031,VALID,29,VALID,0.68129,
2003-03-20, 00:40:00,VALID,916.898,VALID,0,VALID,98.1628,VALID,0,VALID,20.7937,VALID,27,VALID,0.72964,
2003-03-20, 00:41:00,VALID,916.845,VALID,0,VALID,98.0903,VALID,-0.0169808,VALID,20.7807,VALID,35,VALID,0.697985,
2003-03-20, 00:42:00,VALID,916.81,VALID,0,VALID,98.0191,VALID,0,VALID,20.7613,VALID,44,VALID,0.343967,
2003-03-20, 00:43:00,VALID,916.765,VALID,0,VALID,98.0242,VALID,0,VALID,20.7551,VALID,48,VALID,0.151693,
2003-03-20, 00:44:00,VALID,916.729,VALID,0,VALID,98.0471,VALID,-0.0169808,VALID,20.7412,VALID,61,VALID,0.445095,
2003-03-20, 00:45:00,VALID,916.691,VALID,0,VALID,98.0547,VALID,-0.0169808,VALID,20.7387,VALID,59,VALID,0.551562,
2003-03-20, 00:46:00,VALID,916.66,VALID,0,VALID,98.0522,VALID,0,VALID,20.7258,VALID,46,VALID,0.63141,
2003-03-20, 00:47:00,VALID,916.641,VALID,0,VALID,98.1564,VALID,-0.0169808,VALID,20.7129,VALID,34,VALID,0.426373,
2003-03-20, 00:48:00,VALID,916.645,VALID,0,VALID,98.2086,VALID,-0.0169808,VALID,20.7293,VALID,33,VALID,0.181538,
2003-03-20, 00:49:00,VALID,916.641,VALID,0,VALID,98.2238,VALID,0,VALID,20.7099,VALID,33,VALID,0.3648,
2003-03-20, 00:50:00,VALID,916.638,VALID,0,VALID,98.2391,VALID,-0.0339617,VALID,20.7193,VALID,29,VALID,0.542535,
2003-03-20, 00:51:00,VALID,916.65,VALID,0,VALID,98.2582,VALID,0,VALID,20.7096,VALID,12,VALID,0.682726,
2003-03-20, 00:52:00,VALID,916.651,VALID,0,VALID,98.2671,VALID,-0.0339617,VALID,20.7134,VALID,12,VALID,0.671205,
2003-03-20, 00:53:00,VALID,916.67,VALID,0,VALID,98.2582,VALID,-0.0339617,VALID,20.7034,VALID,12,VALID,0.566907,
2003-03-20, 00:54:00,VALID,916.68,VALID,0,VALID,98.2302,VALID,0,VALID,20.69,VALID,12,VALID,0.220644,
2003-03-20, 00:55:00,VALID,916.685,VALID,0,VALID,98.3001,VALID,0.0169808,VALID,20.6935,VALID,13,VALID,0.221217,
2003-03-20, 00:56:00,VALID,916.688,VALID,0,VALID,98.2658,VALID,-0.0679233,VALID,20.6905,VALID,14,VALID,0.258464,
2003-03-20, 00:57:00,VALID,916.682,VALID,0,VALID,98.2709,VALID,0,VALID,20.6673,VALID,14,VALID,0.030816,
2003-03-20, 00:58:00,VALID,916.668,VALID,0,VALID,98.2531,VALID,0,VALID,20.6671,VALID,14,VALID,0,
2003-03-20, 00:59:00,VALID,916.66,VALID,0,VALID,98.192,VALID,-0.0169808,VALID,20.6544,VALID,14,VALID,0.00513393,
2003-03-20, 01:00:00,VALID,916.636,VALID,0,VALID,98.2378,VALID,0,VALID,20.6447,VALID,14,VALID,0.28746,
2003-03-20, 01:01:00,VALID,916.627,VALID,0,VALID,98.2938,VALID,0,VALID,20.645,VALID,34,VALID,0.409091,
2003-03-20, 01:02:00,VALID,916.61,VALID,0,VALID,98.2404,VALID,-0.0169808,VALID,20.6417,VALID,38,VALID,0.314556,
2003-03-20, 01:03:00,VALID,916.603,VALID,0,VALID,98.1742,VALID,-0.0169808,VALID,20.6258,VALID,38,VALID,0.382161,
2003-03-20, 01:04:00,VALID,916.589,VALID,0,VALID,98.1882,VALID,-0.0169808,VALID,20.5925,VALID,41,VALID,0.22678,
2003-03-20, 01:05:00,VALID,916.584,VALID,0,VALID,98.178,VALID,-0.0849042,VALID,20.5935,VALID,41,VALID,0,
2003-03-20, 01:06:00,VALID,916.572,VALID,0,VALID,98.1437,VALID,-0.0169808,VALID,20.5841,VALID,41,VALID,0.000446429,
2003-03-20, 01:07:00,VALID,916.566,VALID,0,VALID,98.1221,VALID,-0.0509425,VALID,20.5709,VALID,41,VALID,0.252404,
2003-03-20, 01:08:00,VALID,916.548,VALID,0,VALID,98.0763,VALID,-0.0339617,VALID,20.5445,VALID,41,VALID,0.271544,
2003-03-20, 01:09:00,VALID,916.545,VALID,0,VALID,98.145,VALID,-0.0169808,VALID,20.5442,VALID,41,VALID,0.292352,
2003-03-20, 01:10:01,VALID,916.54,VALID,0,VALID,98.1768,VALID,-0.0339617,VALID,20.5577,VALID,41,VALID,0.236545,
2003-03-20, 01:11:00,VALID,916.574,VALID,0,VALID,98.1946,VALID,0,VALID,20.5709,VALID,41,VALID,0.0427517,
2003-03-20, 01:12:00,VALID,916.582,VALID,0,VALID,98.2582,VALID,0,VALID,20.5838,VALID,41,VALID,0.147135,
2003-03-20, 01:13:00,VALID,916.611,VALID,0,VALID,98.2302,VALID,-0.0339617,VALID,20.607,VALID,41,VALID,0.0354911,
2003-03-20, 01:14:00,VALID,916.606,VALID,0,VALID,98.103,VALID,-0.0339617,VALID,20.5841,VALID,41,VALID,0,
2003-03-20, 01:15:00,VALID,916.62,VALID,0,VALID,98.1106,VALID,-0.0339617,VALID,20.5609,VALID,41,VALID,0.0151515,
2003-03-20, 01:16:00,VALID,916.609,VALID,0,VALID,98.1958,VALID,-0.0339617,VALID,20.5642,VALID,41,VALID,0.0904605,
2003-03-20, 01:17:01,VALID,916.581,VALID,0,VALID,98.2594,VALID,-0.0339617,VALID,20.59,VALID,41,VALID,0.000205592,
2003-03-20, 01:18:00,VALID,916.581,VALID,0,VALID,98.262,VALID,-0.0339617,VALID,20.5903,VALID,109,VALID,0.136719,
2003-03-20, 01:19:00,VALID,916.578,VALID,0,VALID,98.2518,VALID,-0.0169808,VALID,20.5975,VALID,191,VALID,0.383898,
2003-03-20, 01:20:00,VALID,916.559,VALID,0,VALID,98.3128,VALID,-0.0339617,VALID,20.587,VALID,177,VALID,0.0986607,
2003-03-20, 01:21:00,VALID,916.542,VALID,0,VALID,98.3484,VALID,-0.0679233,VALID,20.5938,VALID,191,VALID,0.277644,
2003-03-20, 01:22:00,VALID,916.542,VALID,0,VALID,98.3599,VALID,-0.0679233,VALID,20.5739,VALID,202,VALID,0.320313,
2003-03-20, 01:23:00,VALID,916.555,VALID,0,VALID,98.4209,VALID,-0.0849042,VALID,20.5739,VALID,205,VALID,0.365748,
2003-03-20, 01:24:01,VALID,916.545,VALID,0,VALID,98.4959,VALID,-0.0169808,VALID,20.5741,VALID,204,VALID,0.450738,
2003-03-20, 01:25:00,VALID,916.546,VALID,0,VALID,98.5354,VALID,-0.0509425,VALID,20.5744,VALID,205,VALID,0.4477,
2003-03-20, 01:26:01,VALID,916.582,VALID,0,VALID,98.5506,VALID,-0.0339617,VALID,20.5771,VALID,134,VALID,0.435547,
2003-03-20, 01:27:00,VALID,916.611,VALID,0,VALID,98.5048,VALID,-0.0339617,VALID,20.5512,VALID,70,VALID,0.279911,
2003-03-20, 01:28:00,VALID,916.631,VALID,0,VALID,98.618,VALID,0,VALID,20.5609,VALID,68,VALID,0.00160256,
2003-03-20, 01:29:00,VALID,916.658,VALID,0,VALID,98.7096,VALID,0,VALID,20.5771,VALID,68,VALID,0.00568182,
2003-03-20, 01:30:00,VALID,916.687,VALID,0,VALID,98.7541,VALID,0,VALID,20.5935,VALID,68,VALID,0.0415296,
2003-03-20, 01:31:01,VALID,916.701,VALID,0,VALID,98.7045,VALID,-0.0339617,VALID,20.5833,VALID,310,VALID,0.567057,
2003-03-20, 01:32:00,VALID,916.733,VALID,0,VALID,98.6524,VALID,0,VALID,20.5472,VALID,241,VALID,0.628255,
2003-03-20, 01:33:00,VALID,916.739,VALID,0,VALID,98.6651,VALID,0,VALID,20.5512,VALID,233,VALID,0.643012,
2003-03-20, 01:34:00,VALID,916.758,VALID,0,VALID,98.6587,VALID,-0.0509425,VALID,20.5351,VALID,217,VALID,0.429018,
2003-03-20, 01:35:00,VALID,916.785,VALID,0,VALID,98.6905,VALID,-0.0169808,VALID,20.5316,VALID,234,VALID,0.297075,
2003-03-20, 01:36:00,VALID,916.764,VALID,0,VALID,98.7465,VALID,-0.0169808,VALID,20.5445,VALID,234,VALID,0.0355114,
2003-03-20, 01:37:01,VALID,916.772,VALID,0,VALID,98.8037,VALID,-0.0339617,VALID,20.5739,VALID,234,VALID,0,
2003-03-20, 01:38:01,VALID,916.77,VALID,0,VALID,98.8393,VALID,-0.0169808,VALID,20.5838,VALID,234,VALID,0,
2003-03-20, 01:39:00,VALID,916.776,VALID,0,VALID,98.8189,VALID,0,VALID,20.5833,VALID,234,VALID,0.0225694,
2003-03-20, 01:40:01,VALID,916.777,VALID,0,VALID,98.8088,VALID,-0.0169808,VALID,20.5868,VALID,234,VALID,0.14974,
2003-03-20, 01:41:00,VALID,916.752,VALID,0,VALID,98.8253,VALID,0,VALID,20.5865,VALID,234,VALID,0.0602679,
2003-03-20, 01:42:00,VALID,916.77,VALID,0,VALID,98.8367,VALID,-0.0339617,VALID,20.593,VALID,235,VALID,0,
2003-03-20, 01:43:00,VALID,916.749,VALID,0,VALID,98.8291,VALID,-0.0169808,VALID,20.5932,VALID,236,VALID,0.00094697,
2003-03-20, 01:44:00,VALID,916.749,VALID,0,VALID,98.8189,VALID,0,VALID,20.6032,VALID,236,VALID,0.0995066,
2003-03-20, 01:45:01,VALID,916.728,VALID,0,VALID,98.7999,VALID,-0.0169808,VALID,20.5833,VALID,245,VALID,0.255642,
2003-03-20, 01:46:00,VALID,916.734,VALID,0,VALID,98.7643,VALID,0,VALID,20.5601,VALID,276,VALID,0.436198,
2003-03-20, 01:47:00,VALID,916.721,VALID,0,VALID,98.7782,VALID,0,VALID,20.5636,VALID,276,VALID,0.0444878,
2003-03-20, 01:48:00,VALID,916.717,VALID,0,VALID,98.7719,VALID,-0.0169808,VALID,20.5607,VALID,266,VALID,0.13125,
2003-03-20, 01:49:00,VALID,916.713,VALID,0,VALID,98.7515,VALID,0,VALID,20.5574,VALID,242,VALID,0.52524,
2003-03-20, 01:50:00,VALID,916.712,VALID,0,VALID,98.7007,VALID,0,VALID,20.5348,VALID,242,VALID,0.465436,
2003-03-20, 01:51:01,VALID,916.703,VALID,0,VALID,98.7159,VALID,0,VALID,20.5119,VALID,250,VALID,0.522204,
2003-03-20, 01:52:01,VALID,916.711,VALID,0,VALID,98.7159,VALID,0,VALID,20.5157,VALID,251,VALID,0.424262,
2003-03-20, 01:53:00,VALID,916.724,VALID,0,VALID,98.7108,VALID,0,VALID,20.5159,VALID,251,VALID,0.16862,
2003-03-20, 01:54:01,VALID,916.734,VALID,0,VALID,98.7147,VALID,0,VALID,20.5057,VALID,251,VALID,0,
2003-03-20, 01:55:00,VALID,916.753,VALID,0,VALID,98.7655,VALID,0,VALID,20.5388,VALID,251,VALID,0,
2003-03-20, 01:56:00,VALID,916.776,VALID,0,VALID,98.7465,VALID,-0.0169808,VALID,20.5289,VALID,251,VALID,0,
2003-03-20, 01:57:00,VALID,916.778,VALID,0,VALID,98.6752,VALID,-0.0169808,VALID,20.5321,VALID,161,VALID,0.185606,
2003-03-20, 01:58:00,VALID,916.764,VALID,0,VALID,98.6167,VALID,-0.0509425,VALID,20.5124,VALID,112,VALID,0.40625,
2003-03-20, 01:59:01,VALID,916.76,VALID,0,VALID,98.6155,VALID,-0.0339617,VALID,20.506,VALID,86,VALID,0.578342,
2003-03-20, 02:00:00,VALID,916.743,VALID,0,VALID,98.6155,VALID,-0.0509425,VALID,20.4898,VALID,66,VALID,0.70421,
2003-03-20, 02:01:00,VALID,916.737,VALID,0,VALID,98.6282,VALID,0.0169808,VALID,20.5033,VALID,57,VALID,0.628472,
2003-03-20, 02:02:00,VALID,916.721,VALID,0,VALID,98.5977,VALID,-0.0339617,VALID,20.51,VALID,61,VALID,0.647545,
2003-03-20, 02:03:00,VALID,916.74,VALID,0,VALID,98.5875,VALID,0,VALID,20.4998,VALID,62,VALID,0.763221,
2003-03-20, 02:04:00,VALID,916.729,VALID,0,VALID,98.529,VALID,-0.0169808,VALID,20.4863,VALID,61,VALID,0.642282,
2003-03-20, 02:05:01,VALID,916.754,VALID,0,VALID,98.515,VALID,0,VALID,20.4769,VALID,41,VALID,0.776727,
2003-03-20, 02:06:01,VALID,916.766,VALID,0,VALID,98.4921,VALID,0,VALID,20.4736,VALID,37,VALID,0.638455,
2003-03-20, 02:07:00,VALID,916.778,VALID,0,VALID,98.5252,VALID,-0.0679233,VALID,20.4771,VALID,43,VALID,0.45204,
2003-03-20, 02:08:01,VALID,916.758,VALID,0,VALID,98.4464,VALID,-0.0679233,VALID,20.4809,VALID,56,VALID,0.82921,
2003-03-20, 02:09:00,VALID,916.754,VALID,0,VALID,98.4057,VALID,-0.101885,VALID,20.4483,VALID,35,VALID,0.665848,
2003-03-20, 02:10:00,VALID,916.748,VALID,0,VALID,98.4235,VALID,-0.0679233,VALID,20.4389,VALID,28,VALID,0.705929,
2003-03-20, 02:11:00,VALID,916.727,VALID,0,VALID,98.4095,VALID,-0.101885,VALID,20.4361,VALID,28,VALID,0.909328,
2003-03-20, 02:12:00,VALID,916.706,VALID,0,VALID,98.4476,VALID,-0.0679233,VALID,20.4187,VALID,25,VALID,0.905839,
2003-03-20, 02:13:01,VALID,916.693,VALID,0,VALID,98.4158,VALID,-0.101885,VALID,20.4122,VALID,27,VALID,0.963542,
2003-03-20, 02:14:00,VALID,916.671,VALID,0,VALID,98.3879,VALID,-0.0849042,VALID,20.4093,VALID,21,VALID,1.08181,
2003-03-20, 02:15:00,VALID,916.655,VALID,0,VALID,98.3917,VALID,-0.0679233,VALID,20.4036,VALID,24,VALID,1.09484,
2003-03-20, 02:16:00,VALID,916.643,VALID,0,VALID,98.3701,VALID,-0.101885,VALID,20.3707,VALID,25,VALID,1.20223,
2003-03-20, 02:17:00,VALID,916.658,VALID,0,VALID,98.4095,VALID,-0.101885,VALID,20.3678,VALID,21,VALID,1.11198,
2003-03-20, 02:18:00,VALID,916.665,VALID,0,VALID,98.4692,VALID,-0.101885,VALID,20.3581,VALID,29,VALID,1.41383,
2003-03-20, 02:19:01,VALID,916.646,VALID,0,VALID,98.5137,VALID,-0.101885,VALID,20.3583,VALID,23,VALID,1.00863,
2003-03-20, 02:20:01,VALID,916.66,VALID,0,VALID,98.5735,VALID,-0.0849042,VALID,20.3548,VALID,34,VALID,0.971354,
2003-03-20, 02:21:00,VALID,916.228,VALID,0,VALID,98.6066,VALID,-0.0849042,VALID,20.3712,VALID,38,VALID,0.955946,
2003-03-20, 02:22:01,VALID,916.664,VALID,0,VALID,98.6625,VALID,-0.0339617,VALID,20.3734,VALID,30,VALID,0.687283,
2003-03-20, 02:23:00,VALID,916.646,VALID,0,VALID,98.6689,VALID,0,VALID,20.3794,VALID,32,VALID,0.520982,
2003-03-20, 02:24:00,VALID,916.649,VALID,0,VALID,98.7236,VALID,0.0169808,VALID,20.3888,VALID,26,VALID,0.536458,
2003-03-20, 02:25:00,VALID,916.638,VALID,0,VALID,98.7007,VALID,0.0169808,VALID,20.3886,VALID,19,VALID,0.640625,
2003-03-20, 02:26:00,VALID,916.609,VALID,0,VALID,98.6892,VALID,0,VALID,20.3956,VALID,9,VALID,0.590049,
2003-03-20, 02:27:01,VALID,916.589,VALID,0,VALID,98.6625,VALID,0,VALID,20.3856,VALID,355,VALID,0.721354,
2003-03-20, 02:28:00,VALID,916.585,VALID,0,VALID,98.6282,VALID,0.0339617,VALID,20.3754,VALID,10,VALID,0.71224,
2003-03-20, 02:29:00,VALID,916.552,VALID,0,VALID,98.5773,VALID,0,VALID,20.3769,VALID,13,VALID,0.675998,
2003-03-20, 02:30:00,VALID,916.533,VALID,0,VALID,98.6117,VALID,0.0169808,VALID,20.3694,VALID,13,VALID,0.408259,
2003-03-20, 02:31:00,VALID,916.532,VALID,0,VALID,98.6663,VALID,0.0339617,VALID,20.3886,VALID,14,VALID,0.269832,
2003-03-20, 02:32:00,VALID,916.515,VALID,0,VALID,98.6028,VALID,0.0169808,VALID,20.3821,VALID,28,VALID,0.421165,
2003-03-20, 02:33:01,VALID,916.487,VALID,0,VALID,98.5201,VALID,0.0169808,VALID,20.366,VALID,72,VALID,0.571135,
2003-03-20, 02:34:01,VALID,916.471,VALID,0,VALID,98.4565,VALID,0.0169808,VALID,20.3468,VALID,82,VALID,0.735026,
2003-03-20, 02:35:00,VALID,916.458,VALID,0,VALID,98.4298,VALID,0,VALID,20.3244,VALID,85,VALID,0.812283,
2003-03-20, 02:36:01,VALID,916.431,VALID,0,VALID,98.4692,VALID,0.0339617,VALID,20.3013,VALID,75,VALID,0.641927,
2003-03-20, 02:37:00,VALID,916.386,VALID,0,VALID,98.4883,VALID,0,VALID,20.2852,VALID,96,VALID,0.681473,
2003-03-20, 02:38:00,VALID,916.363,VALID,0,VALID,98.5328,VALID,0.0509425,VALID,20.2625,VALID,97,VALID,0.596755,
2003-03-20, 02:39:01,VALID,916.33,VALID,0,VALID,98.5455,VALID,0.0509425,VALID,20.2461,VALID,104,VALID,0.608665,
2003-03-20, 02:40:00,VALID,916.294,VALID,0,VALID,98.5811,VALID,0.0169808,VALID,20.2235,VALID,102,VALID,0.555099,
2003-03-20, 02:41:01,VALID,916.294,VALID,0,VALID,98.618,VALID,0,VALID,20.2277,VALID,106,VALID,0.567057,
2003-03-20, 02:42:00,VALID,916.272,VALID,0,VALID,98.6562,VALID,0.0169808,VALID,20.2146,VALID,108,VALID,0.513455,
2003-03-20, 02:43:00,VALID,916.26,VALID,0,VALID,98.604,VALID,0.0339617,VALID,20.1949,VALID,125,VALID,0.920573,
2003-03-20, 02:44:00,VALID,916.268,VALID,0,VALID,98.6295,VALID,0.0169808,VALID,20.1696,VALID,128,VALID,0.540179,
2003-03-20, 02:45:00,VALID,916.272,VALID,0,VALID,98.6663,VALID,0.0509425,VALID,20.1497,VALID,134,VALID,0.499199,
2003-03-20, 02:46:00,VALID,916.282,VALID,0,VALID,98.6803,VALID,0.0169808,VALID,20.1268,VALID,138,VALID,0.233665,
2003-03-20, 02:47:01,VALID,916.248,VALID,0,VALID,98.6613,VALID,0.0339617,VALID,20.0912,VALID,133,VALID,0.51912,
2003-03-20, 02:48:01,VALID,916.241,VALID,0,VALID,98.6511,VALID,0.0339617,VALID,20.0624,VALID,141,VALID,0.355252,
2003-03-20, 02:49:00,VALID,916.217,VALID,0,VALID,98.6587,VALID,0,VALID,20.0465,VALID,143,VALID,0.393229,
2003-03-20, 02:50:01,VALID,916.224,VALID,0,VALID,98.7134,VALID,0,VALID,20.0172,VALID,136,VALID,0.0913628,
2003-03-20, 02:51:01,VALID,916.192,VALID,0,VALID,98.7732,VALID,0.0339617,VALID,20.0042,VALID,128,VALID,0.0292411,
2003-03-20, 02:52:01,VALID,916.192,VALID,0,VALID,98.8062,VALID,0.0169808,VALID,20.0114,VALID,128,VALID,0,
2003-03-20, 02:53:00,VALID,916.161,VALID,0,VALID,98.8304,VALID,0,VALID,20.0117,VALID,128,VALID,0.00118371,
2003-03-20, 02:54:00,VALID,916.152,VALID,0,VALID,98.8622,VALID,0,VALID,20.0112,VALID,128,VALID,0,
2003-03-20, 02:55:01,VALID,916.142,VALID,0,VALID,98.8787,VALID,0.0169808,VALID,20.0077,VALID,128,VALID,0,
2003-03-20, 02:56:01,VALID,916.153,VALID,0,VALID,98.8698,VALID,0,VALID,20.0042,VALID,128,VALID,0,
2003-03-20, 02:57:01,VALID,916.19,VALID,0,VALID,98.852,VALID,0.0169808,VALID,20.008,VALID,128,VALID,0.0815972,
2003-03-20, 02:58:01,VALID,916.183,VALID,0,VALID,98.8049,VALID,0,VALID,19.9848,VALID,127,VALID,0.0879464,
2003-03-20, 02:59:01,VALID,916.193,VALID,0,VALID,98.838,VALID,0.0169808,VALID,19.9918,VALID,162,VALID,0.168069,
2003-03-20, 03:00:01,VALID,916.197,VALID,0,VALID,98.7986,VALID,0.0169808,VALID,19.9883,VALID,165,VALID,0.0589489,
2003-03-20, 03:01:01,VALID,916.189,VALID,0,VALID,98.7706,VALID,0,VALID,19.9858,VALID,165,VALID,0.063528,
2003-03-20, 03:02:01,VALID,916.204,VALID,0,VALID,98.7554,VALID,0.0169808,VALID,19.9791,VALID,165,VALID,0,
2003-03-20, 03:03:01,VALID,916.173,VALID,0,VALID,98.7439,VALID,0.0169808,VALID,19.9759,VALID,165,VALID,0.00868056,
2003-03-20, 03:04:01,VALID,916.193,VALID,0,VALID,98.7465,VALID,-0.0169808,VALID,19.9694,VALID,165,VALID,0,
2003-03-20, 03:05:01,VALID,916.211,VALID,0,VALID,98.7185,VALID,0,VALID,19.9796,VALID,165,VALID,0.0194196,
2003-03-20, 03:06:01,VALID,916.241,VALID,0,VALID,98.6498,VALID,-0.0169808,VALID,19.9595,VALID,155,VALID,0.242188,
2003-03-20, 03:07:01,VALID,916.262,VALID,0,VALID,98.6244,VALID,0,VALID,19.9498,VALID,144,VALID,0.308712,
2003-03-20, 03:08:01,VALID,916.297,VALID,0,VALID,98.5468,VALID,0,VALID,19.9239,VALID,164,VALID,0.899877,
2003-03-20, 03:09:01,VALID,916.291,VALID,0,VALID,98.5443,VALID,0,VALID,19.9274,VALID,203,VALID,0.513889,
2003-03-20, 03:10:01,VALID,916.298,VALID,0,VALID,98.4947,VALID,0,VALID,19.914,VALID,210,VALID,0.61849,
2003-03-20, 03:11:01,VALID,916.297,VALID,0,VALID,98.4603,VALID,0,VALID,19.9309,VALID,183,VALID,0.561849,
2003-03-20, 03:12:01,VALID,916.286,VALID,0,VALID,98.4095,VALID,0,VALID,19.9307,VALID,190,VALID,0.408929,
2003-03-20, 03:13:00,VALID,916.285,VALID,0,VALID,98.3332,VALID,0,VALID,19.9341,VALID,214,VALID,0.54347,
2003-03-20, 03:14:00,VALID,916.301,VALID,0,VALID,98.2658,VALID,0,VALID,19.9374,VALID,174,VALID,0.503078,
2003-03-20, 03:15:00,VALID,916.272,VALID,0,VALID,98.22,VALID,0.0169808,VALID,19.9207,VALID,180,VALID,0.447985,
2003-03-20, 03:16:00,VALID,916.278,VALID,0,VALID,98.178,VALID,0,VALID,19.9304,VALID,166,VALID,0.438802,
2003-03-20, 03:17:00,VALID,916.257,VALID,0,VALID,98.145,VALID,0,VALID,19.9371,VALID,164,VALID,0.116319,
2003-03-20, 03:18:00,VALID,916.27,VALID,0,VALID,98.0712,VALID,0,VALID,19.9436,VALID,177,VALID,0.626953,
2003-03-20, 03:19:00,VALID,916.293,VALID,0,VALID,98.0178,VALID,0,VALID,19.9503,VALID,177,VALID,0.22567,
2003-03-20, 03:20:00,VALID,916.276,VALID,0,VALID,97.9644,VALID,0,VALID,19.9533,VALID,178,VALID,0.0380609,
2003-03-20, 03:21:00,VALID,916.288,VALID,0,VALID,97.9301,VALID,0.0169808,VALID,19.9498,VALID,207,VALID,0.337121,
2003-03-20, 03:22:00,VALID,916.331,VALID,0,VALID,97.9212,VALID,0,VALID,19.9568,VALID,210,VALID,0.686678,
2003-03-20, 03:23:00,VALID,916.339,VALID,0,VALID,97.9415,VALID,0,VALID,19.9565,VALID,216,VALID,0.350043,
2003-03-20, 03:24:00,VALID,916.351,VALID,0,VALID,97.972,VALID,0,VALID,19.9759,VALID,204,VALID,0.236328,
2003-03-20, 03:25:00,VALID,916.414,VALID,0,VALID,97.9403,VALID,-0.0169808,VALID,19.9829,VALID,191,VALID,0.0494792,
2003-03-20, 03:26:00,VALID,916.432,VALID,0,VALID,97.9059,VALID,0,VALID,19.9926,VALID,191,VALID,0,
2003-03-20, 03:27:00,VALID,916.404,VALID,0,VALID,97.8818,VALID,0.0169808,VALID,19.9824,VALID,189,VALID,0.093149,
2003-03-20, 03:28:00,VALID,916.407,VALID,0,VALID,97.8665,VALID,0.0169808,VALID,19.9789,VALID,164,VALID,0.102036,
2003-03-20, 03:29:00,VALID,916.377,VALID,0,VALID,97.8245,VALID,0.0169808,VALID,19.9826,VALID,140,VALID,0.0553043,
2003-03-20, 03:30:00,VALID,916.367,VALID,0,VALID,97.7521,VALID,0.0169808,VALID,19.9563,VALID,140,VALID,0.127604,
2003-03-20, 03:31:00,VALID,916.362,VALID,0,VALID,97.7355,VALID,0.0169808,VALID,19.95,VALID,143,VALID,0.226997,
2003-03-20, 03:32:00,VALID,916.333,VALID,0,VALID,97.7648,VALID,0,VALID,19.9473,VALID,138,VALID,0.607422,
2003-03-20, 03:33:00,VALID,916.329,VALID,0,VALID,97.7966,VALID,0,VALID,19.9371,VALID,140,VALID,0.104464,
2003-03-20, 03:34:00,VALID,916.302,VALID,0,VALID,97.7597,VALID,0,VALID,19.9401,VALID,140,VALID,0,
2003-03-20, 03:35:00,VALID,916.32,VALID,0,VALID,97.7559,VALID,0.0169808,VALID,19.9436,VALID,140,VALID,0.0187027,
2003-03-20, 03:36:00,VALID,916.306,VALID,0,VALID,97.6974,VALID,-0.0169808,VALID,19.9471,VALID,140,VALID,0.206003,
2003-03-20, 03:37:00,VALID,916.301,VALID,0,VALID,97.6529,VALID,0,VALID,19.9443,VALID,140,VALID,0.0681424,
2003-03-20, 03:38:00,VALID,916.305,VALID,0,VALID,97.644,VALID,-0.0339617,VALID,19.9312,VALID,129,VALID,0.196615,